• In Hungary
  • List of Countries
  • For 7 days
  • Water Temperature
  • Satellite Maps
  • Weather Map
  • News
  • Weather Widgets
  • user-avatar
    Login

    Hourly Weather Sciborz

    Today, 22 September, Saturday

    Time Temperature Precipitation Wind Pressure Humidity
    00:00 +16°C° 0.9 mm 5 mps 741 mmHg 83%
    01:00 +14°C° 0.9 mm 5 mps 742 mmHg 85%
    02:00 +14°C° 0.6 mm 4 mps 742 mmHg 84%
    03:00 +13°C° 0.6 mm 3 mps 743 mmHg 84%
    04:00 +13°C° 0.6 mm 3 mps 744 mmHg 83%
    05:00 +12°C° 0 mm 3 mps 744 mmHg 81%
    06:00 +12°C° 0 mm 3 mps 745 mmHg 80%
    07:00 +12°C° 0 mm 3 mps 745 mmHg 79%
    08:00 +13°C° 0 mm 4 mps 745 mmHg 71%
    09:00 +14°C° 0 mm 4 mps 745 mmHg 64%
    10:00 +15°C° 0 mm 5 mps 745 mmHg 56%
    11:00 +16°C° 0 mm 5 mps 745 mmHg 53%
    12:00 +17°C° 0 mm 5 mps 745 mmHg 50%
    13:00 +17°C° 0 mm 5 mps 745 mmHg 46%
    14:00 +17°C° 0 mm 5 mps 745 mmHg 48%
    15:00 +17°C° 0 mm 5 mps 745 mmHg 49%
    16:00 +17°C° 0 mm 4 mps 744 mmHg 50%
    17:00 +15°C° 0 mm 4 mps 745 mmHg 53%
    18:00 +14°C° 0 mm 3 mps 745 mmHg 56%
    19:00 +14°C° 0 mm 2 mps 745 mmHg 58%
    20:00 +14°C° 0 mm 2 mps 745 mmHg 59%
    21:00 +14°C° 0 mm 2 mps 745 mmHg 60%
    22:00 +14°C° 0 mm 2 mps 745 mmHg 61%
    23:00 +12°C° 0 mm 3 mps 745 mmHg 63%

    Tomorrow, 23 September, Sunday

    Time Temperature Precipitation Wind Pressure Humidity
    00:00 +12°C° 0 mm 3 mps 745 mmHg 66%
    01:00 +12°C° 0 mm 3 mps 745 mmHg 69%
    02:00 +12°C° 0 mm 3 mps 744 mmHg 70%
    03:00 +12°C° 0 mm 4 mps 744 mmHg 71%
    04:00 +12°C° 0 mm 4 mps 744 mmHg 73%
    05:00 +12°C° 0 mm 4 mps 744 mmHg 74%
    06:00 +12°C° 0 mm 4 mps 744 mmHg 75%
    07:00 +12°C° 0 mm 4 mps 744 mmHg 76%
    08:00 +12°C° 0.2 mm 4 mps 743 mmHg 76%
    09:00 +12°C° 0.2 mm 4 mps 743 mmHg 76%
    10:00 +13°C° 0.2 mm 4 mps 743 mmHg 76%
    11:00 +13°C° 0.1 mm 4 mps 743 mmHg 77%
    12:00 +13°C° 0.1 mm 4 mps 742 mmHg 77%
    13:00 +14°C° 0.1 mm 3 mps 742 mmHg 78%
    14:00 +13°C° 0.2 mm 3 mps 741 mmHg 80%
    15:00 +13°C° 0.2 mm 3 mps 740 mmHg 82%
    16:00 +13°C° 0.2 mm 3 mps 740 mmHg 85%
    17:00 +14°C° 0.2 mm 4 mps 738 mmHg 86%
    18:00 +14°C° 0.2 mm 5 mps 737 mmHg 87%
    19:00 +14°C° 0.2 mm 5 mps 736 mmHg 88%
    20:00 +15°C° 0.7 mm 7 mps 735 mmHg 86%
    21:00 +15°C° 0.7 mm 8 mps 734 mmHg 85%
    22:00 +16°C° 0.7 mm 9 mps 732 mmHg 83%
    23:00 +16°C° 3.3 mm 8 mps 732 mmHg 83%

    Day after tomorrow, 24 September, Monday

    Time Temperature Precipitation Wind Pressure Humidity
    00:00 +16°C° 3.3 mm 8 mps 731 mmHg 83%
    01:00 +15°C° 3.3 mm 7 mps 730 mmHg 83%
    02:00 +12°C° 1.2 mm 9 mps 733 mmHg 83%
    03:00 +9°C° 1.2 mm 10 mps 735 mmHg 84%
    04:00 +7°C° 1.2 mm 11 mps 737 mmHg 85%
    05:00 +7°C° 0.1 mm 10 mps 738 mmHg 83%
    06:00 +7°C° 0.1 mm 10 mps 740 mmHg 82%
    07:00 +7°C° 0.1 mm 9 mps 742 mmHg 81%
    08:00 +8°C° 0.1 mm 10 mps 743 mmHg 76%
    09:00 +8°C° 0.1 mm 10 mps 744 mmHg 70%
    10:00 +8°C° 0.1 mm 10 mps 745 mmHg 65%
    11:00 +9°C° 0.1 mm 10 mps 746 mmHg 61%
    12:00 +9°C° 0.1 mm 10 mps 746 mmHg 58%
    13:00 +11°C° 0.1 mm 10 mps 747 mmHg 54%
    14:00 +11°C° 0.1 mm 10 mps 747 mmHg 54%
    15:00 +11°C° 0.1 mm 9 mps 748 mmHg 53%
    16:00 +10°C° 0.1 mm 9 mps 748 mmHg 53%
    17:00 +9°C° 0 mm 8 mps 749 mmHg 56%
    18:00 +8°C° 0 mm 6 mps 749 mmHg 60%
    19:00 +7°C° 0 mm 5 mps 750 mmHg 64%
    20:00 +7°C° 0 mm 5 mps 750 mmHg 66%
    21:00 +7°C° 0 mm 5 mps 751 mmHg 69%
    22:00 +6°C° 0 mm 5 mps 751 mmHg 71%
    23:00 +6°C° 0 mm 4 mps 752 mmHg 73%

    25 September, Tuesday

    Time Temperature Precipitation Wind Pressure Humidity
    00:00 +5°C° 0 mm 4 mps 752 mmHg 74%
    01:00 +5°C° 0 mm 4 mps 752 mmHg 75%
    02:00 +5°C° 0 mm 4 mps 753 mmHg 77%
    03:00 +4°C° 0 mm 4 mps 753 mmHg 78%
    04:00 +4°C° 0 mm 4 mps 754 mmHg 80%
    05:00 +4°C° 0 mm 4 mps 754 mmHg 79%
    06:00 +4°C° 0 mm 4 mps 755 mmHg 79%
    07:00 +5°C° 0 mm 4 mps 755 mmHg 78%
    08:00 +6°C° 0 mm 4 mps 756 mmHg 72%
    09:00 +8°C° 0 mm 4 mps 756 mmHg 66%
    10:00 +9°C° 0 mm 5 mps 757 mmHg 60%
    11:00 +11°C° 0 mm 4 mps 756 mmHg 56%
    12:00 +12°C° 0 mm 4 mps 756 mmHg 52%
    13:00 +12°C° 0 mm 4 mps 756 mmHg 47%
    14:00 +12°C° 0 mm 4 mps 756 mmHg 48%
    15:00 +12°C° 0 mm 4 mps 756 mmHg 48%
    16:00 +12°C° 0 mm 4 mps 756 mmHg 49%
    17:00 +10°C° 0 mm 3 mps 756 mmHg 55%
    18:00 +9°C° 0 mm 2 mps 756 mmHg 60%
    19:00 +7°C° 0 mm 2 mps 756 mmHg 66%
    20:00 +7°C° 0 mm 2 mps 756 mmHg 67%
    21:00 +6°C° 0 mm 2 mps 756 mmHg 69%
    22:00 +6°C° 0 mm 2 mps 756 mmHg 70%
    23:00 +6°C° 0 mm 2 mps 756 mmHg 70%

    26 September, Wednesday

    Time Temperature Precipitation Wind Pressure Humidity
    00:00 +6°C° 0 mm 2 mps 756 mmHg 70%
    01:00 +5°C° 0 mm 3 mps 755 mmHg 70%
    02:00 +5°C° 0 mm 3 mps 755 mmHg 71%
    03:00 +4°C° 0 mm 3 mps 755 mmHg 73%
    04:00 +4°C° 0 mm 3 mps 755 mmHg 74%
    05:00 +5°C° 0 mm 3 mps 755 mmHg 73%
    06:00 +5°C° 0 mm 3 mps 755 mmHg 72%
    07:00 +7°C° 0 mm 3 mps 755 mmHg 72%
    08:00 +9°C° 0 mm 3 mps 755 mmHg 67%
    09:00 +10°C° 0 mm 4 mps 755 mmHg 63%
    10:00 +12°C° 0 mm 4 mps 755 mmHg 59%
    11:00 +13°C° 0 mm 4 mps 755 mmHg 57%
    12:00 +14°C° 0 mm 4 mps 754 mmHg 55%
    13:00 +15°C° 0 mm 4 mps 754 mmHg 53%
    14:00 +16°C° 0 mm 3 mps 754 mmHg 54%
    15:00 +16°C° 0 mm 3 mps 754 mmHg 55%
    16:00 +16°C° 0 mm 3 mps 753 mmHg 56%
    17:00 +14°C° 0 mm 2 mps 753 mmHg 62%
    18:00 +12°C° 0 mm 1 mps 753 mmHg 69%
    19:00 +11°C° 0 mm 1 mps 753 mmHg 75%
    20:00 +10°C° 0 mm 1 mps 753 mmHg 75%
    21:00 +10°C° 0 mm 1 mps 753 mmHg 75%
    22:00 +10°C° 0 mm 1 mps 753 mmHg 75%
    23:00 +8°C° 0 mm 2 mps 753 mmHg 75%

    27 September, Thursday

    Time Temperature Precipitation Wind Pressure Humidity
    00:00 +8°C° 0 mm 2 mps 753 mmHg 74%
    01:00 +8°C° 0 mm 2 mps 752 mmHg 73%
    02:00 +8°C° 0 mm 2 mps 752 mmHg 72%
    03:00 +8°C° 0 mm 2 mps 752 mmHg 71%
    04:00 +8°C° 0 mm 2 mps 751 mmHg 69%
    05:00 +8°C° 0 mm 2 mps 751 mmHg 68%
    06:00 +8°C° 0 mm 2 mps 751 mmHg 67%
    07:00 +9°C° 0 mm 3 mps 751 mmHg 66%
    08:00 +11°C° 0 mm 3 mps 750 mmHg 59%
    09:00 +13°C° 0 mm 3 mps 750 mmHg 53%
    10:00 +17°C° 0 mm 4 mps 749 mmHg 46%
    11:00 +18°C° 0 mm 4 mps 749 mmHg 45%
    12:00 +19°C° 0 mm 5 mps 748 mmHg 43%
    13:00 +20°C° 0 mm 5 mps 748 mmHg 41%
    14:00 +19°C° 0 mm 5 mps 747 mmHg 43%
    15:00 +19°C° 0 mm 4 mps 747 mmHg 45%
    16:00 +19°C° 0 mm 4 mps 746 mmHg 48%
    17:00 +17°C° 0 mm 4 mps 746 mmHg 52%
    18:00 +14°C° 0 mm 4 mps 746 mmHg 56%
    19:00 +13°C° 0 mm 3 mps 746 mmHg 60%
    20:00 +12°C° 0 mm 3 mps 746 mmHg 62%
    21:00 +12°C° 0 mm 3 mps 746 mmHg 65%
    22:00 +11°C° 0 mm 3 mps 746 mmHg 67%
    23:00 +11°C° 0 mm 3 mps 746 mmHg 69%
    Show more